Weather Roundup
Issued by NWS Corpus Christi, TX

Home | Current Version | Previous Version | Text Only | Print | Product List | Glossary On
Versions: 1 2 3 4 5 6 7 8 9 10 11 12 13 14 15 16 17 18 19 20 21 22 23 24 25 26 27 28 29 30 31 32 33 34 35 36 37 38 39 40 41 42 43 44 45 46 47 48 49 50
000
ASUS44 KCRP 020410
HRRCRP

SOUTH TEXAS REGIONAL WEATHER ROUNDUP
NATIONAL WEATHER SERVICE CORPUS CHRISTI TX
1100 PM CDT WED APR 01 2015


TXZ229>244-020500-
...CORPUS CHRISTI AREA OBSERVATIONS...

CITY           SKY/WX    TMP DP  RH WIND       PRES   REMARKS
CORPUS CHRISTI CLOUDY    71  69  93 SE16      29.93S
NAS CORPUS CHR MOCLDY    71  70  96 SE13      29.94R
ROCKPORT       MOCLDY    71  69  93 SE13G21   29.94S
KINGSVILLE NAS PTCLDY    71  71 100 SE14      29.92S
ALICE          CLEAR     70  67  90 SE10      29.92R
FALFURRIAS     CLEAR     71  67  88 SE8       29.92R
$$

...VICTORIA AREA OBSERVATIONS...

CITY           SKY/WX    TMP DP  RH WIND       PRES   REMARKS
VICTORIA       CLOUDY    71  69  93 SE12      29.96R
BEEVILLE       FAIR      69  69 100 SE7       29.93S
PLEASANTON     CLOUDY    71  66  86 SE9       29.92R
SAN ANTONIO    CLOUDY    72  67  84 SE13      29.94R
$$

...LAREDO AREA OBSERVATIONS...

CITY           SKY/WX    TMP DP  RH WIND       PRES   REMARKS
LAREDO         CLEAR     75  68  79 SE13      29.91R
COTULLA        CLEAR     72  67  84 E8        29.90R
DEL RIO        CLEAR     72  63  73 SE6       29.87R
MCALLEN        CLEAR     74  68  81 SE10      29.94R
HEBBRONVILLE     N/A     71  67  85 SE9       29.93R
$$

...OTHER TEXAS OBSERVATIONS...

CITY           SKY/WX    TMP DP  RH WIND       PRES   REMARKS
BROWNSVILLE    CLOUDY    73  71  93 SE9       29.95R
HOUSTON        PTCLDY    70  66  87 S10       29.97F
COL. STATION   PTCLDY    69  66  90 SE9       29.96R
AUSTIN         PTCLDY    70  66  87 S13       29.91R
WACO           CLEAR     68  64  87 S16       29.88R
FORT WORTH     PTCLDY    70  63  78 S17       29.84R
WICHITA FALLS  CLEAR     71  61  70 S18       29.74R
LUBBOCK        CLOUDY    70  40  33 N6        29.81F
EL PASO        PTCLDY    75  33  21 W20       29.93R
$$

...MARINE OBSERVATIONS...

STATION/POSITION TIME  SKY/WX   TEMP    WIND        PRES    VSBY  WAVE   SWELL
                                AIR SEA DIR/SP/G                  HT/PER HT/PER
                 (UTC)          (F)     (DEG/KT/KT) (MB)    (MI)  (FT/S) (FT/S)
PORT ARANSAS     0400            69 70  130/ 14/ 15 1014.3R
BUOY 90 E PORT A 0350            72 70  150/ 10/ 12 1015.1R         3/ 6   2/ 6
BUOY 45 SE BAFFI 0350            71 70  140/ 12/ 14 1013.4R         4/ 7   2/ 7
BUOY 200 E PT IS 0350            74 73  140/ 14/ 17 1015.8R         5/ 6   2/12
BUOY 15 E GALVES 0350            70 70  140/  6/  8 1015.5R         2/ 6   2/ 6
$$



USA.gov is the U.S. government's official web portal to all federal, state and local government web resources and services.